Flag for Kazakhstan Weather past 2 weeks in Astana, Kazakhstan

Now
82 °F

Broken clouds.


Feels Like: 81 °F
Forecast: 63 / 77 °F
Wind: 22 mph from South

Location: Astana

Current Time: Jul 2, 2015 at 7:29:31 PM

Latest Report: Jul 2, 2015 at 6:30 PM


Visibility: N/A

Pressure: 29.59 "Hg

Humidity: 37%

Dew point: 54 °F

Location of AstanaLocation

Historic Weather in Astana — Graph

°F

Astana temperature yesterday

Maximum temperature yesterday: 93 °F (at 7:30 PM)
Minimum temperature yesterday: 59 °F (at 6:00 AM)
Average temperature yesterday: 78 °F

Past Weeks' High & Low Weather Summary

 TemperatureHumidityPressure
High93 °F (Jul 1, 7:30 PM)94% (Jun 18, 4:00 AM)30.07 "Hg (Jun 18, 4:00 AM)
Low52 °F (Jun 29, 4:00 AM)15% (Jul 1, 12:00 PM)29.59 "Hg (Jul 2, 6:30 PM)
Average72 °F51%29.90 "Hg
* Reported Jun 17 6:00 PM — Jul 2 6:30 PM, Astana, Weather by CustomWeather, © 2015

Note: Actual official high and low records may vary slightly from our data, if they occured in-between our weather recording intervals... More about our weather records

Advertising

Astana weather history for previous 24 hours

 ConditionsComfort  
Time TempWeatherWind HumidityBarometerVisibility
6:30 PM
Thu, Jul 2
82 °FBroken clouds.22 mph37%29.59 "HgN/A
6:00 PM84 °FBroken clouds.17 mph33%29.62 "HgN/A
5:30 PM84 °FBroken clouds.20 mph35%29.62 "HgN/A
5:00 PM84 °FBroken clouds.20 mph37%29.65 "HgN/A
4:30 PM84 °FPartly sunny.13 mph40%29.68 "HgN/A
4:00 PM84 °FPartly sunny.13 mph40%29.68 "HgN/A
3:30 PM82 °FPartly sunny.13 mph42%29.71 "HgN/A
3:00 PM82 °FPartly sunny.10 mph45%29.71 "HgN/A
2:30 PM81 °FBroken clouds.10 mph48%29.74 "HgN/A
2:00 PM81 °FPartly sunny.6 mph37%29.74 "HgN/A
1:30 PM79 °FBroken clouds.6 mph48%29.80 "HgN/A
1:00 PM79 °FSprinkles. Broken clouds.3 mph45%29.77 "HgN/A
12:00 PM77 °FPartly sunny.8 mph47%29.80 "HgN/A
11:30 AM79 °FSprinkles. Partly sunny.13 mph45%29.80 "HgN/A
11:00 AM79 °FPartly sunny.10 mph45%29.80 "HgN/A
10:00 AM81 °FPartly sunny.6 mph51%29.80 "HgN/A
9:30 AM81 °FPartly sunny.6 mph45%29.80 "HgN/A
9:00 AM81 °FPartly sunny.6 mph39%29.77 "HgN/A
8:30 AM79 °FPartly sunny.6 mph42%29.77 "HgN/A
8:00 AM77 °FPartly sunny.3 mph44%29.77 "HgN/A
7:30 AM73 °FSunny.3 mph47%29.77 "Hg10 mi
7:00 AM70 °FSunny.3 mph57%29.77 "Hg10 mi
6:30 AM66 °FPassing clouds.3 mph64%29.77 "HgN/A
6:00 AM63 °FClear.6 mph68%29.77 "Hg10 mi
5:30 AM63 °FClear.3 mph68%29.77 "Hg10 mi
5:00 AM64 °FClear.3 mph60%29.77 "Hg10 mi
4:30 AM64 °FClear.6 mph64%29.77 "Hg10 mi
4:00 AM64 °FClear.6 mph60%29.77 "Hg10 mi
3:30 AM66 °FClear.6 mph56%29.77 "Hg10 mi
3:00 AM66 °FClear.No wind52%29.77 "Hg10 mi
2:30 AM66 °FClear.10 mph56%29.77 "Hg10 mi
2:00 AM68 °FClear.6 mph53%29.80 "Hg10 mi
1:30 AM68 °FClear.6 mph49%29.80 "Hg10 mi
1:00 AM70 °FClear.3 mph50%29.80 "Hg10 mi
12:30 AM73 °FClear.6 mph57%29.80 "Hg10 mi
12:00 AM73 °FClear.1 mph61%29.80 "Hg10 mi
11:30 PM
Wed, Jul 1
77 °FClear.1 mph54%29.80 "Hg10 mi
11:00 PM77 °FClear.6 mph61%29.80 "Hg10 mi
10:30 PM77 °FSunny.3 mph57%29.80 "Hg10 mi
10:00 PM77 °FPassing clouds.3 mph51%29.80 "HgN/A
9:30 PM82 °FSunny.1 mph51%29.80 "Hg10 mi
9:00 PM86 °FSunny.3 mph38%29.80 "Hg10 mi
8:30 PM88 °FSunny.3 mph31%29.80 "Hg10 mi
8:00 PM88 °FSunny.1 mph22%29.80 "Hg10 mi
7:30 PM93 °FSunny.1 mph15%29.80 "Hg10 mi
7:00 PM91 °FSunny.3 mph16%29.80 "Hg10 mi
Weather by CustomWeather, © 2015

See weather overviewHow to use our weather pages